Vero Beach, FL

12:52 PM EST on February 28, 2017 (GMT -0500)
Vero Beach Municipal

Weather History for KVRB - December, 2012

Change the Weather History Date:

Tuesday, December 4, 2012

  Actual Average Record
Temperature  
Mean Temperature 66 °F 67 °F  
Max Temperature 78 °F 76 °F 84 °F (1994)
Min Temperature 54 °F 58 °F 37 °F (1989)
Degree Days  
Heating Degree Days 0 2  
Month to date heating degree days 0 8  
Since 1 July heating degree days 52 38  
Cooling Degree Days 1 4  
Month to date cooling degree days 14 16  
Year to date cooling degree days 3433 3327  
Growing Degree Days 16 (Base 50)    
Moisture  
Dew Point 56 °F    
Average Humidity 65    
Maximum Humidity 90    
Minimum Humidity 40    
Precipitation  
Precipitation T in 0.08 in 1.58 in (1964)
Month to date precipitation 0.21 0.31  
Year to date precipitation 46.60 49.99  
Sea Level Pressure  
Sea Level Pressure 30.22 in    
Wind  
Wind Speed 8 mph (ENE)    
Max Wind Speed 18 mph    
Max Gust Speed 24 mph    
Visibility 10 miles    
Events      
T = Trace of Precipitation, MM = Missing Value Source: NWS Daily Summary

Daily Weather History Graph

Daily Weather History Graph

Search for Another Location

Airport or City:

Trip Planner

Search our weather history database for the weather conditions in past years. The results will help you decide how hot, cold, wet, or windy it might be!

Date:

Astronomy

Dec. 04, 2012 Rise Set
Actual Time 6:57 AM EST 5:26 PM EST
Civil Twilight 6:32 AM EST 5:52 PM EST
Nautical Twilight 6:03 AM EST 6:20 PM EST
Astronomical Twilight 5:34 AM EST 6:49 PM EST
Moon 10:52 PM EST (12/4) 11:08 AM EST (12/4)
Length of Visible Light 11h 19m
Length of Day
10h 28m
Waning Gibbous, 69% of the Moon is Illuminated
Dec 4
Waning Gibbous
Dec 6
Last Quarter
Dec 13
New
Dec 20
First Quarter
Dec 28
Full

Hourly Weather History & Observations

Time (EST) Temp. Dew Point Humidity Pressure Visibility Wind Dir Wind Speed Gust Speed Precip Events Conditions
12:53 AM 69.1 °F 54.0 °F 58% 30.24 in 10.0 mi ENE 8.1 mph - N/A   Clear
1:53 AM 66.9 °F 52.0 °F 59% 30.23 in 10.0 mi East 6.9 mph - N/A   Clear
2:53 AM 68.0 °F 53.1 °F 59% 30.22 in 10.0 mi East 5.8 mph - N/A   Clear
3:53 AM 66.0 °F 53.1 °F 63% 30.22 in 10.0 mi ESE 3.5 mph - N/A   Scattered Clouds
4:53 AM 66.0 °F 52.0 °F 60% 30.22 in 10.0 mi East 3.5 mph - N/A   Partly Cloudy
5:53 AM 57.0 °F 52.0 °F 83% 30.22 in 10.0 mi Calm Calm - N/A   Clear
6:53 AM 55.0 °F 52.0 °F 89% 30.23 in 10.0 mi Calm Calm - N/A   Clear
7:53 AM 60.1 °F 57.0 °F 90% 30.25 in 10.0 mi Calm Calm - N/A   Partly Cloudy
8:53 AM 71.1 °F 61.0 °F 70% 30.26 in 10.0 mi East 6.9 mph - N/A   Mostly Cloudy
9:53 AM 73.9 °F 60.1 °F 62% 30.27 in 10.0 mi ENE 10.4 mph - N/A   Mostly Cloudy
10:53 AM 75.9 °F 59.0 °F 56% 30.27 in 10.0 mi East 13.8 mph - N/A   Partly Cloudy
11:53 AM 75.0 °F 57.0 °F 53% 30.26 in 10.0 mi ENE 13.8 mph - N/A   Scattered Clouds
12:53 PM 78.1 °F 55.0 °F 45% 30.23 in 10.0 mi East 15.0 mph 20.7 mph N/A   Scattered Clouds
1:53 PM 77.0 °F 52.0 °F 42% 30.22 in 10.0 mi East 12.7 mph - N/A   Clear
2:53 PM 75.9 °F 57.0 °F 52% 30.20 in 10.0 mi NE 13.8 mph - N/A   Scattered Clouds
3:53 PM 73.9 °F 54.0 °F 50% 30.19 in 10.0 mi ENE 10.4 mph - N/A   Partly Cloudy
4:53 PM 73.0 °F 55.0 °F 53% 30.20 in 10.0 mi ENE 9.2 mph - N/A   Partly Cloudy
5:53 PM 71.1 °F 57.9 °F 63% 30.20 in 10.0 mi ENE 8.1 mph - N/A   Mostly Cloudy
6:53 PM 72.0 °F 59.0 °F 64% 30.21 in 10.0 mi ENE 8.1 mph - N/A   Overcast
7:53 PM 72.0 °F 59.0 °F 64% 30.22 in 10.0 mi East 6.9 mph - 0.00 in   Mostly Cloudy
8:53 PM 70.0 °F 57.0 °F 63% 30.21 in 10.0 mi East 3.5 mph - N/A   Clear
9:53 PM 64.0 °F 57.0 °F 78% 30.20 in 10.0 mi ENE 5.8 mph - N/A   Partly Cloudy
10:53 PM 71.1 °F 61.0 °F 70% 30.19 in 10.0 mi ENE 4.6 mph - N/A   Overcast
11:53 PM 70.0 °F 63.0 °F 78% 30.18 in 10.0 mi ENE 9.2 mph - N/A   Mostly Cloudy